Caldwell, NJ

8:13 PM EST on November 11, 2019 (GMT -0500)
Essex County

Weather History for KCDW - October, 2019

Change the Weather History Date:

Wednesday, October 16, 2019

  Actual Average Record
Temperature  
Mean Temperature 56 °F -  
Max Temperature 66 °F 67 °F 84 °F (1956)
Min Temperature 45 °F 41 °F 29 °F (1978)
Degree Days  
Heating Degree Days 10    
Growing Degree Days 6 (Base 50)    
Moisture  
Dew Point 55 °F    
Average Humidity 88    
Maximum Humidity 97    
Minimum Humidity 69    
Precipitation  
Precipitation 2.27 in - - ()
Sea Level Pressure  
Sea Level Pressure 29.61 in    
Wind  
Wind Speed 6 mph ()    
Max Wind Speed 25 mph    
Max Gust Speed 37 mph    
Visibility 5.3 miles    
Events Rain    
Averages and records for this station are not official NWS values.
T = Trace of Precipitation, MM = Missing Value Source: Averaged Metar Reports

Daily Weather History Graph

Daily Weather History Graph

Search for Another Location

Airport or City:

Astronomy

Oct. 16, 2019 Rise Set
Actual Time 7:09 AM EDT 6:15 PM EDT
Civil Twilight 6:41 AM EDT 6:43 PM EDT
Nautical Twilight 6:09 AM EDT 7:14 PM EDT
Astronomical Twilight 5:37 AM EDT 7:46 PM EDT
Moon 8:06 PM EDT (10/16) 9:38 AM EDT (10/16)
Length of Visible Light 12h 01m
Length of Day
11h 06m
Waning Gibbous, 93% of the Moon is Illuminated
Oct 16
Waning Gibbous
Oct 21
Last Quarter
Oct 27
New
Nov 4
First Quarter
Nov 12
Full

Hourly Weather History & Observations

Time (EDT) Temp. Windchill Dew Point Humidity Pressure Visibility Wind Dir Wind Speed Gust Speed Precip Events Conditions
12:53 AM 46.9 °F - 43.0 °F 86% 30.09 in 10.0 mi Calm Calm - N/A   Clear
1:53 AM 46.0 °F - 42.1 °F 86% 30.09 in 10.0 mi Calm Calm - N/A   Clear
2:53 AM 45.0 °F 43.5 °F 42.1 °F 90% 30.07 in 10.0 mi North 3.5 mph - N/A   Clear
3:53 AM 45.0 °F - 42.1 °F 90% 30.05 in 9.0 mi Calm Calm - N/A   Clear
4:26 AM 45.0 °F - 43.0 °F 93% 30.02 in 10.0 mi Calm Calm - N/A   Mostly Cloudy
4:53 AM 46.9 °F - 44.1 °F 90% 30.03 in 10.0 mi Calm Calm - N/A   Overcast
5:15 AM 46.9 °F - 44.1 °F 90% 30.01 in 10.0 mi Calm Calm - N/A   Overcast
5:53 AM 48.0 °F - 44.1 °F 86% 30.02 in 10.0 mi Calm Calm - N/A   Mostly Cloudy
6:53 AM 48.0 °F - 45.0 °F 89% 30.00 in 10.0 mi Calm Calm - N/A   Scattered Clouds
7:24 AM 46.9 °F - 45.0 °F 93% 29.97 in 8.0 mi Calm Calm - N/A   Overcast
7:44 AM 48.9 °F - 46.0 °F 90% 29.95 in 8.0 mi Calm Calm - N/A   Mostly Cloudy
7:53 AM 50.0 °F - 46.9 °F 89% 29.96 in 9.0 mi Calm Calm - N/A   Mostly Cloudy
8:53 AM 59.0 °F - 48.9 °F 69% 29.95 in 10.0 mi ESE 8.1 mph - N/A   Mostly Cloudy
9:36 AM 60.1 °F - 50.0 °F 69% 29.92 in 10.0 mi SE 6.9 mph - N/A   Overcast
9:53 AM 61.0 °F - 51.1 °F 70% 29.93 in 10.0 mi ESE 8.1 mph - N/A   Overcast
10:53 AM 64.0 °F - 57.0 °F 78% 29.87 in 10.0 mi SE 10.4 mph - N/A   Mostly Cloudy
11:23 AM 66.0 °F - 57.9 °F 75% 29.84 in 10.0 mi SE 5.8 mph - N/A   Overcast
11:53 AM 66.0 °F - 57.9 °F 75% 29.83 in 10.0 mi SE 11.5 mph 21.9 mph N/A   Overcast
12:53 PM 66.9 °F - 59.0 °F 76% 29.78 in 10.0 mi SE 18.4 mph 24.2 mph N/A   Overcast
1:53 PM 66.0 °F - 60.1 °F 81% 29.72 in 10.0 mi SE 16.1 mph 25.3 mph 0.00 in   Overcast
2:46 PM 66.0 °F - 61.0 °F 84% 29.69 in 2.5 mi SSE 16.1 mph 25.3 mph 0.05 in Rain Rain
2:53 PM 66.0 °F - 61.0 °F 84% 29.69 in 3.0 mi SSE 9.2 mph 24.2 mph 0.06 in Rain Light Rain
2:59 PM 64.9 °F - 62.1 °F 90% 29.67 in 2.5 mi SSE 13.8 mph 17.3 mph 0.02 in Rain Rain
3:18 PM 64.0 °F - 61.0 °F 90% 29.67 in 1.0 mi SSE 5.8 mph 16.1 mph 0.17 in Rain Heavy Rain
3:31 PM 64.0 °F - 61.0 °F 90% 29.65 in 2.0 mi ESE 6.9 mph - 0.23 in Rain Rain
3:38 PM 64.0 °F - 61.0 °F 90% 29.65 in 2.5 mi SE 8.1 mph - 0.26 in Rain Rain
3:46 PM 64.9 °F - 61.0 °F 87% 29.64 in 1.5 mi SE 12.7 mph 19.6 mph 0.32 in Rain Heavy Rain
3:53 PM 64.9 °F - 59.0 °F 81% 29.64 in 1.8 mi SE 12.7 mph 28.8 mph 0.34 in Rain Rain
3:56 PM 64.9 °F - 59.0 °F 81% 29.62 in 3.0 mi SE 12.7 mph 28.8 mph 0.00 in Rain Light Rain
4:05 PM 64.9 °F - 60.1 °F 84% 29.61 in 10.0 mi SE 10.4 mph 21.9 mph 0.00 in Rain Light Rain
4:12 PM 64.0 °F - 61.0 °F 90% 29.60 in 1.8 mi ESE 13.8 mph 21.9 mph 0.07 in Rain Heavy Rain
4:22 PM 64.0 °F - 61.0 °F 90% 29.60 in 2.0 mi SE 12.7 mph - 0.10 in Rain Rain
4:28 PM 64.0 °F - 61.0 °F 90% 29.59 in 1.2 mi ESE 10.4 mph - 0.16 in Rain Heavy Rain
4:39 PM 64.0 °F - 61.0 °F 90% 29.58 in 2.0 mi North - - 0.20 in Rain Light Rain
4:53 PM 64.0 °F - 60.1 °F 87% 29.58 in 2.5 mi SE 15.0 mph 24.2 mph 0.23 in Rain Rain
5:41 PM 63.0 °F - 60.1 °F 90% 29.51 in 1.8 mi East 9.2 mph - 0.21 in Rain Rain
5:53 PM 63.0 °F - 60.1 °F 90% 29.51 in 1.5 mi ESE 16.1 mph 24.2 mph 0.30 in Rain Heavy Rain
6:53 PM 62.1 °F - 60.1 °F 93% 29.42 in 1.5 mi ESE 12.7 mph - 0.34 in Rain Heavy Rain
7:00 PM 62.1 °F - 60.1 °F 93% 29.39 in 3.0 mi East 15.0 mph 20.7 mph 0.03 in Rain Rain
7:32 PM 62.1 °F - 60.1 °F 93% 29.33 in 2.0 mi East 11.5 mph 19.6 mph 0.18 in Rain Rain
7:45 PM 63.0 °F - 60.1 °F 90% 29.32 in 4.0 mi ESE 12.7 mph 24.2 mph 0.22 in Rain Rain
7:51 PM 62.6 °F - 60.8 °F 94% 29.31 in 2.5 mi East 12.7 mph - 0.25 in Rain Rain
7:53 PM 62.1 °F - 60.1 °F 93% 29.32 in 2.5 mi East 10.4 mph - 0.26 in Rain Heavy Rain
7:58 PM 62.1 °F - 60.1 °F 93% 29.30 in 1.8 mi East 13.8 mph - 0.04 in Rain Heavy Rain
8:12 PM 62.1 °F - 60.1 °F 93% 29.28 in 2.0 mi East 12.7 mph - 0.10 in Rain Rain
8:23 PM 61.0 °F - 60.1 °F 97% 29.27 in 1.8 mi East 9.2 mph - 0.16 in Rain Heavy Rain
8:28 PM 61.0 °F - 60.1 °F 97% 29.26 in 2.0 mi East 10.4 mph - 0.19 in Rain Rain
8:35 PM 61.0 °F - 60.1 °F 97% 29.25 in 1.5 mi East 9.2 mph - 0.25 in Rain Heavy Rain
8:53 PM 61.0 °F - 60.1 °F 97% 29.24 in 2.0 mi East 9.2 mph - 0.36 in Rain Light Rain
9:18 PM 62.1 °F - 61.0 °F 96% 29.20 in 1.8 mi NNW 3.5 mph - 0.11 in Rain Rain
9:28 PM 61.0 °F - 59.0 °F 93% 29.20 in 1.8 mi NW 10.4 mph - 0.17 in Rain Heavy Rain
9:36 PM 61.0 °F - 59.0 °F 93% 29.20 in 1.2 mi NW 10.4 mph - 0.24 in Rain Heavy Rain
9:45 PM 61.0 °F - 59.0 °F 93% 29.19 in 1.2 mi NW 12.7 mph 19.6 mph 0.31 in Rain Heavy Rain
9:53 PM 61.0 °F - 59.0 °F 93% 29.20 in 2.5 mi NNW 9.2 mph 19.6 mph 0.32 in Rain Light Rain
10:32 PM 57.0 °F - 53.1 °F 87% 29.22 in 5.0 mi NW 19.6 mph 36.8 mph 0.06 in Rain Light Rain
10:50 PM 55.4 °F - 50.0 °F 82% 29.23 in 10.0 mi NW 19.6 mph 34.5 mph 0.06 in Rain Light Rain
10:53 PM 55.0 °F - 50.0 °F 83% 29.24 in 9.0 mi NW 25.3 mph 34.5 mph 0.06 in Rain Light Rain
11:53 PM 54.0 °F - 46.9 °F 77% 29.28 in 10.0 mi NW 19.6 mph 27.6 mph 0.00 in   Overcast